Hourly Data Report for October 30, 2003

SHERBROOKE A
QUEBEC

45°26'00.000" N
71°41'00.000" W
241.40 m
7028124
71610
YSC

Download Data

Hourly Data (October 2003)
Hourly Data Report for October 30, 2003
TIME
LST
Temp Definition
°C
Dew Point Definition
°C
Rel Hum Definition
%
Precip. Amount Definition
mm

Wind Dir Definition
10's deg

Wind Spd Definition
km/h
Visibility Definition
km
Stn Press Definition
kPa
Hmdx Definition


Wind Chill Definition


Weather Definition


00:00 5.3 3.6 89   25 20 15.0 97.68      
01:00 5.2 3.7 90   25 15 15.0 97.76      
02:00 5.5 4.2 91   24 15 12.9 97.88      
03:00 5.6 4.9 95   24 11 4.8 97.95     Rain
04:00 5.8 5.0 95   25 24 5.6 98.02     Rain
05:00 5.3 3.7 89   24 13 15.0 98.11     Rain
06:00 5.5 3.6 88   25 19 15.0 98.24      
07:00 5.5 2.8 83   22 9 15.0 98.33      
08:00 6.1 2.7 79   24 15 24.1 98.46     Cloudy
09:00 6.5 2.6 76   26 22 24.1 98.52     Cloudy
10:00 6.9 2.9 76   26 20 24.1 98.62     Cloudy
11:00 7.6 2.7 71   26 30 24.1 98.76     Mostly Cloudy
12:00 8.7 2.9 67   25 26 24.1 98.85     Mostly Cloudy
13:00 8.9 2.9 66   25 20 24.1 98.91     Mostly Cloudy
14:00 9.3 2.1 61   26 24 24.1 98.99     Mostly Cloudy
15:00 8.7 1.9 62   26 24 24.1 99.06     Mostly Cloudy
16:00 8.4 2.1 64   26 22 24.1 99.17     Mainly Clear
17:00 7.8 2.2 68   26 19 24.1 99.27     Mostly Cloudy
18:00 4.8 1.5 79   14 4 15.0 99.33      
19:00 4.8 1.5 79   22 7 15.0 99.37      
20:00 6.0 2.1 76   22 9 15.0 99.40      
21:00 5.7 1.9 77   21 7 15.0 99.50      
22:00 6.1 2.2 76   23 7 15.0 99.54      
23:00 6.0 2.2 77   25 4 15.0 99.56      

Notes on Data Quality.

Legend

  • E = Estimated
  • M = Missing
  • NA = Not Available*
  • [empty] = Indicates an unobserved value
Date modified: